Torna al catalogo

CZ-6A DEB

AttivoPO
NORAD 64656·DEBRIS·🇨🇳 China

Lanciato Aug 6, 2024 da Taiyuan Satellite Launch Center

Loading…

Prossimi Passaggi (prossime 24 ore)

TLE

AggiornatoSource: Space-Track

Epoca: Sep 13, 2026, 11:27 UTC

1 64656U 24140AEW 26256.47726120  .00002986  00000-0  10272-2 0  9997
2 64656  89.0203 265.1307 0016250 180.6079 179.5103 14.35731821 98615

Traccia CZ-6A DEB in tempo reale con AllMySat

Download on the App Store